Tracking 29892 objects as of 21-Nov-2024
HD Live streaming from Space Station
objects crossing your sky now

STARLINK-32193

Track STARLINK-32193 now!
10-day predictions
STARLINK-32193 is classified as:


NORAD ID: 60428
Int'l Code: 2024-144D
Perigee: 481.6 km
Apogee: 483.2 km
Inclination: 53.2 °
Period: 94.1 minutes
Semi major axis: 6853 km
RCS: Unknown
Launch date: August 12, 2024
Source: United States (US)
Launch site: AIR FORCE EASTERN TEST RANGE (AFETR)
Your satellite tracking list
Your tracking list is empty




NASA's NSSDC Master Catalog

Two Line Element Set (TLE):
1 60428U 24144D   24325.81615674  .00000935  00000-0  43710-4 0  9995
2 60428  53.1605 258.4736 0001169  71.4004 288.7124 15.30180791 16790
Source of the keplerian elements: AFSPC